[Iaude] MPEC J230: 2024 JC7 [a=1.65,e=0.32,i=12.3,H=24.8]

mpec at cfa.harvard.edu mpec at cfa.harvard.edu
Thu May 9 10:27:37 EDT 2024


M.P.E.C. 2024-J230                                  Issued 2024 May 9, 14:25 UT

     The Minor Planet Electronic Circulars contain information on unusual
         minor planets, routine data on comets and natural satellites,
         and occasional editorial announcements.  They are published
    on behalf of Division F of the International Astronomical Union by the
          Minor Planet Center, Smithsonian Astrophysical Observatory,
                          Cambridge, MA 02138, U.S.A.
			  
             Prepared using the Tamkin Foundation Computer Network

                              MPC at CFA.HARVARD.EDU
            URL https://www.minorplanetcenter.net/    ISSN 1523-6714

                                    2024 JC7                                    


Observations:
     K24J07C  C2024 05 07.47195015 04 26.313+15 53 54.99         22.16GVEJ230F51
     K24J07C  C2024 05 07.48341715 04 25.988+15 53 10.28         21.80GVEJ230F51
     K24J07C* C2024 05 07.49809415 04 25.566+15 52 13.37         22.10wXEJ230F52
     K24J07C  C2024 05 07.50860815 04 25.275+15 51 32.38         22.08GVEJ230F51
     K24J07C  C2024 05 07.51057315 04 25.226+15 51 24.94         22.42wXEJ230F52
     K24J07C  C2024 05 07.53556315 04 24.572+15 49 46.63         22.67wXEJ230F52
     K24J07C  C2024 05 07.59371815 04 23.310+15 45 57.73         21.62GVEJ230F51
     K24J07C  C2024 05 07.59435815 04 23.278+15 45 55.38         21.69GVEJ230F51
     K24J07C KC2024 05 08.21000 15 04 25.01 +15 05 16.1          21.6 RVEJ230291
     K24J07C KC2024 05 08.22497 15 04 24.68 +15 04 17.6                VEJ230291
     K24J07C KC2024 05 08.23997 15 04 24.21 +15 03 16.4          21.9 RVEJ230291
     K24J07C KC2024 05 08.36528215 04 20.759+14 54 52.52         22.48GVEJ230V06
     K24J07C KC2024 05 08.37831415 04 20.424+14 53 59.28         22.01GVEJ230V06
     K24J07C KC2024 05 08.38149515 04 20.320+14 53 46.18         21.87GVEJ230V06
     K24J07C KC2024 05 08.38467515 04 20.269+14 53 32.96         22.03GVEJ230V06
     K24J07C 1C2024 05 08.97397 15 04 18.27 +14 12 49.0          22.3 VXEJ230033
     K24J07C 1C2024 05 08.97760 15 04 18.17 +14 12 33.8          21.9 VXEJ230033
     K24J07C 1C2024 05 08.98122 15 04 18.08 +14 12 18.3          22.0 VXEJ230033
     K24J07C 1C2024 05 08.98484 15 04 17.97 +14 12 03.5          22.3 VXEJ230033

Observer details:
033 Karl Schwarzschild Observatory, Tautenburg.  Observers S. Melnikov, C.
    Hogner, F. Ludwig, M. Hartmann, B. Stecklum.  Measurer B. Stecklum.
    1.34-m f/3 Schmidt + CCD.
291 LPL/Spacewatch II.  Observer M. T. Read.  1.8-m f/2.7 reflector + CCD.
F51 Pan-STARRS 1, Haleakala.  Observers J. Herman, T. Lowe, P. Minguez, A.
    Schultz, I. Smith.  Measurers K. Chambers, T. de Boer, J. Fairlamb, H.
    Gao, M. Huber, C.-C. Lin, E. Magnier, Y. Ramanjooloo, R. Wainscoat, R.
    Weryk.  1.8-m Ritchey-Chretien + CCD.
F52 Pan-STARRS 2, Haleakala.  Observers J. Herman, T. Lowe, P. Minguez, A.
    Schultz, I. Smith.  Measurers K. Chambers, T. de Boer, J. Fairlamb, H.
    Gao, M. Huber, C.-C. Lin, E. Magnier, Y. Ramanjooloo, R. Wainscoat, R.
    Weryk.  1.8-m Ritchey-Chretien + CCD.
V06 Catalina Sky Survey-Kuiper.  Observer H. Groeller.  Measurers T. Beuden,
    V. F. Carvajal, D. Fay, J. B. Fazekas, D. C. Fuls, A. R. Gibbs, A. D.
    Grauer, H. Groeller, J. K. Hogan, R. A. Kowalski, S. M. Larson, G. J.
    Leonard, D. Rankin, R. L. Seaman, F. C. Shelly, K. W. Wierzchos.  1.55-m
    reflector + 1K CCD.

Orbital elements:
2024 JC7                                                 Earth MOID = 0.1138 AU
Epoch 2024 Mar. 31.0 TT = JDT 2460400.5                 Veres                   
M 334.49692              (2000.0)            P               Q                  
n   0.46390540     Peri.  177.48181     -0.46660354     +0.86317309             
a   1.6526584      Node    64.64483     -0.81516742     -0.33506044             
e   0.3183082      Incl.   12.32585     -0.34319560     -0.37771249             
P   2.12           H   24.86          G   0.15           U   9                  
Residuals in seconds of arc
240507 F51  0.0   0.1+    240507 F51  0.1+  0.2+    240508 V06  0.1+  0.2-
240507 F51  0.1+  0.2-    240508 291  0.5+  1.3-    240508 033  0.6+  0.1+
240507 F52  0.0   0.0     240508 291  0.9+  0.4-    240508 033  0.3+  0.1+
240507 F51  0.1-  0.0     240508 291  0.4-  1.9-    240508 033  0.2+  0.3-
240507 F52  0.0   0.2+    240508 V06  0.1-  0.1+    240508 033  0.2-  0.1+
240507 F52  0.0   0.3-    240508 V06  0.0   0.1+
240507 F51  0.4+  0.0     240508 V06  0.3-  0.0

Ephemeris:
2024 JC7                 a,e,i = 1.65, 0.32, 12                  q = 1.1266
Date    TT    R. A. (2000) Decl.     Delta      r    Elong.  Phase     V
2024 04 09    14 58 28.8 +28 55 18   0.2594  1.1999   135.3    35.9    23.8
...
2024 04 24    15 04 15.1 +25 37 02   0.1962  1.1611   139.1    34.6    23.1
...
2024 05 02    15 04 47.6 +20 54 05   0.1671  1.1458   143.1    31.9    22.6
...
2024 05 08    15 04 24.2 +15 19 39   0.1482  1.1372   147.6    28.4    22.2
2024 05 09    15 04 18.2 +14 11 39   0.1454  1.1360   148.5    27.7    22.2
2024 05 10    15 04 12.2 +12 59 54   0.1427  1.1349   149.4    26.9    22.1
...
2024 05 16    15 03 42.8 +04 28 11   0.1289  1.1296   155.5    21.8    21.7
...
2024 05 24    15 04 10.9 -10 07 40   0.1191  1.1266   162.2    16.0    21.4
...
2024 06 08    15 13 15.7 -38 27 39   0.1332  1.1338   151.5    25.3    21.9

M. P. C. Staff               (C) Copyright 2024 MPC           M.P.E.C. 2024-J230





More information about the Iaude mailing list